Flag for Austria Weather past 2 weeks in Kapfenberg, Styria, Austria

Now
54 °F

Partly cloudy.


Feels Like: 54 °F
Forecast: 46 / 75 °F
Wind: 1 mph from North

Location: Zeltweg

Current Time: Sep 19, 2014 at 12:52:22 AM

Latest Report: Sep 18, 2014 at 10:50 PM


Visibility: 6 mi

Pressure: 30.09 "Hg

Humidity: 94%

Dew point: 52 °F

Location of KapfenbergLocation

Historic Weather in Kapfenberg — Graph

°F

Kapfenberg temperature yesterday

Maximum temperature yesterday: 66 °F (at 2:50 PM)
Minimum temperature yesterday: 45 °F (at 6:50 AM)
Average temperature yesterday: 58 °F

Past Weeks' High & Low Weather Summary

 TemperatureHumidityPressure
High77 °F (Sep 8, 4:20 PM)100% (Sep 4, 4:50 AM)30.12 "Hg (Sep 4, 4:50 AM)
Low45 °F (Sep 18, 6:50 AM)41% (Sep 8, 3:50 PM)29.89 "Hg (Sep 12, 4:50 AM)
Average59 °F83%30.04 "Hg
* Reported Sep 3 10:50 PM — Sep 18 10:50 PM, Kapfenberg, Weather by CustomWeather, © 2014

Note: Actual official high and low records may vary slightly from our data, if they occured in-between our weather recording intervals... More about our weather records

Advertising

Kapfenberg weather history for previous 24 hours

 ConditionsComfort  
Time TempWeatherWind HumidityBarometerVisibility
10:50 PM
Sep 18
54 °FPartly cloudy.1 mph94%30.09 "Hg6 mi
9:50 PM57 °FPassing clouds.1 mph88%30.09 "Hg6 mi
8:50 PM57 °FPassing clouds.2 mph82%30.09 "Hg6 mi
7:50 PM61 °FPartly sunny.2 mph68%30.07 "Hg9 mi
7:20 PM61 °FPartly sunny.5 mph68%30.07 "Hg9 mi
6:50 PM61 °FBroken clouds.2 mph68%30.07 "Hg9 mi
6:20 PM63 °FPartly sunny.5 mph64%30.07 "Hg12 mi
5:50 PM63 °FPartly sunny.3 mph64%30.07 "Hg12 mi
5:20 PM63 °FPartly sunny.6 mph68%30.07 "Hg16 mi
4:50 PM64 °FPartly sunny.6 mph64%30.07 "Hg16 mi
4:20 PM64 °FPartly sunny.3 mph64%30.07 "Hg16 mi
3:50 PM66 °FPartly sunny.2 mph56%30.07 "Hg16 mi
3:20 PM66 °FPartly sunny.2 mph56%30.07 "Hg16 mi
2:50 PM66 °FPartly sunny.2 mph56%30.07 "Hg16 mi
2:20 PM64 °FPartly sunny.1 mph60%30.07 "Hg16 mi
1:50 PM64 °FBroken clouds.2 mph60%30.07 "Hg16 mi
1:20 PM64 °FPartly sunny.3 mph60%30.09 "Hg16 mi
12:50 PM64 °FPartly sunny.2 mph60%30.09 "Hg16 mi
12:20 PM63 °FPartly sunny.1 mph68%30.09 "Hg12 mi
11:50 AM61 °FPartly sunny.2 mph72%30.09 "Hg12 mi
11:20 AM59 °FPartly sunny.2 mph77%30.09 "Hg12 mi
10:50 AM57 °FBroken clouds.2 mph77%30.12 "Hg12 mi
10:20 AM55 °FPartly sunny.2 mph82%30.12 "Hg12 mi
9:50 AM54 °FPartly sunny.1 mph82%30.09 "Hg5 mi
8:50 AM52 °FFog.1 mph88%30.09 "Hg1 mi
8:20 AM50 °FCool.2 mph94%30.09 "Hg1 mi
7:50 AM48 °FScattered clouds.2 mph100%30.09 "Hg1 mi
7:20 AM45 °FSnow. Passing clouds.2 mph100%30.09 "Hg1 mi
6:50 AM45 °FPassing clouds.1 mph100%30.09 "Hg1 mi
5:50 AM46 °FPassing clouds.2 mph93%30.09 "Hg9 mi
4:50 AM46 °FPassing clouds.1 mph93%30.09 "Hg9 mi
Weather by CustomWeather, © 2014

See weather overviewHow to use our weather pages